Theta_e
334 328 319 317 301 296 292 298 301 303 308 311 317 324 323 324 323 315 338 346 347 348 352 354 359 356 356 357 357 357 357 358 358 357 357 356 356 356 356 355 357 356 354 353 351 350 348 351 353
328 324 317 307 294 291 294 299 301 307 313 315 322 323 322 320 334 333 338 347 348 350 352 352 359 359 357 356 356 356 355 355 356 356 355 355 356 356 355 355 356 356 354 352 351 349 349 352 353
325 320 307 299 293 291 293 299 303 309 312 316 315 323 323 325 334 334 339 347 348 350 351 352 359 359 358 355 355 355 355 354 353 354 354 356 356 355 355 354 355 355 354 352 350 349 351 352 352
313 311 306 297 292 297 298 298 305 308 310 316 320 321 328 334 334 337 346 346 345 348 351 357 360 358 358 354 353 353 353 353 352 352 354 355 355 355 355 354 355 354 353 351 349 349 350 350 351
311 309 299 295 295 298 300 302 303 303 306 310 313 317 324 335 339 340 343 344 342 344 352 357 361 358 358 356 353 351 351 353 354 351 351 355 355 356 355 355 354 353 353 351 350 349 348 348 348
303 302 294 291 295 300 301 302 305 305 305 309 313 321 324 335 337 337 341 340 341 343 354 356 361 361 361 358 355 352 351 354 353 353 352 352 355 355 355 355 353 353 353 351 349 348 346 345 345
302 299 294 293 296 298 301 304 304 305 306 307 315 319 325 330 337 338 337 339 338 343 351 355 356 357 361 360 358 355 351 355 353 350 352 355 353 356 355 353 352 352 352 351 349 347 345 343 342
307 301 295 294 295 296 302 304 305 304 304 311 316 319 320 331 338 338 338 339 340 345 348 351 354 355 356 355 359 358 356 354 354 352 354 354 355 355 355 354 352 352 351 351 349 347 344 342 340
308 296 292 294 297 299 303 302 306 307 304 306 309 318 325 336 337 334 334 337 340 343 345 350 352 352 351 352 355 358 357 355 355 354 355 353 348 349 351 351 353 351 351 351 349 347 345 341 340
302 293 295 301 302 300 303 302 303 303 302 302 313 325 332 333 331 330 330 334 338 340 344 347 349 349 349 352 350 348 350 349 347 347 347 347 344 345 348 349 352 352 351 351 350 347 345 341 329
302 296 301 304 306 308 303 302 304 301 299 302 303 320 326 329 328 330 330 335 337 340 343 346 347 346 345 346 344 344 345 344 344 344 342 343 343 340 343 342 343 343 349 344 345 343 339 333 329
299 305 305 307 309 306 302 303 301 302 302 306 306 308 314 322 326 328 329 333 335 339 342 343 345 344 344 344 344 344 343 342 342 342 341 339 337 337 337 339 338 340 340 339 338 336 335 333 331
299 302 305 307 305 304 304 302 301 302 305 306 307 306 307 318 324 326 331 333 336 337 340 341 343 343 343 342 341 341 340 341 340 341 340 339 337 336 336 336 336 337 338 337 335 334 334 331 328
301 301 301 302 302 302 301 300 302 304 304 305 305 305 304 310 321 321 318 322 330 337 337 339 342 341 342 339 339 340 339 339 338 339 339 339 337 336 335 334 335 335 336 335 335 334 333 329 323
302 297 299 300 300 300 301 297 298 304 302 302 302 303 304 304 309 313 316 313 321 335 338 338 341 342 340 338 338 338 339 339 338 338 339 339 337 335 334 333 333 334 334 334 334 331 328 323 323
297 294 290 297 300 301 300 291 300 302 300 301 301 299 301 303 304 306 309 308 313 331 336 337 342 341 340 338 335 335 336 334 335 335 336 337 336 335 331 331 330 332 331 331 331 329 324 321 320
292 286 289 293 299 299 296 292 299 301 301 300 300 300 301 301 303 304 307 308 309 327 335 336 337 339 338 334 334 334 334 334 333 334 333 335 335 333 329 328 329 330 329 328 328 324 321 318 319
287 288 290 289 296 297 295 294 298 300 299 299 298 299 300 302 303 305 306 309 308 324 335 336 336 335 333 333 332 331 331 330 330 330 331 333 334 332 329 328 329 328 327 326 325 321 320 318 320
292 291 290 294 298 295 294 294 296 299 298 297 297 298 298 301 305 305 305 307 307 319 331 334 334 330 333 331 329 326 326 325 326 328 330 330 330 331 327 327 327 326 325 324 324 321 319 320 322
294 291 290 294 297 295 295 294 296 297 298 300 301 300 299 301 302 303 305 304 310 315 327 332 332 331 333 333 326 326 325 325 325 326 328 329 329 327 327 325 325 324 323 323 322 321 321 320 321
294 291 291 292 295 294 292 292 293 296 298 299 301 301 301 303 303 304 304 303 308 315 324 329 331 332 332 331 327 324 323 323 321 322 323 326 328 327 327 327 324 323 322 321 323 323 321 318 320
290 296 296 294 290 286 292 284 290 295 296 297 298 298 298 300 303 304 304 303 308 317 324 328 329 329 328 329 323 325 320 318 319 321 323 325 326 326 325 326 323 322 321 321 324 324 322 321 317
292 298 295 294 289 287 288 284 285 292 294 296 297 297 300 302 302 306 308 305 308 316 323 324 323 323 321 321 322 320 317 318 319 319 319 319 321 325 325 324 324 324 324 325 324 322 321 321 320
294 295 294 293 288 282 287 287 288 288 292 295 298 300 301 301 303 312 314 314 313 316 317 319 319 318 318 318 317 317 316 315 316 317 317 318 319 325 326 325 321 321 321 321 324 323 321 320 320
291 290 283 283 281 281 289 287 289 293 293 295 298 300 302 302 307 311 313 314 316 317 318 319 318 316 317 317 316 316 316 315 316 316 316 316 316 317 320 320 319 319 323 326 325 322 321 320 319
285 287 283 277 277 279 289 283 289 294 296 297 298 302 303 303 308 311 313 315 317 318 318 318 317 315 316 317 316 316 316 315 315 316 316 315 316 317 320 319 320 324 325 321 319 323 322 321 318
283 279 284 280 283 281 282 289 294 295 294 295 295 297 303 304 307 311 313 315 316 317 317 318 317 316 316 316 316 315 316 316 316 316 316 316 317 318 319 320 321 324 322 318 319 321 321 320 320
283 285 279 283 274 275 280 283 286 289 291 293 294 295 296 303 307 311 312 313 315 317 318 318 318 316 316 315 316 316 316 317 317 317 318 317 319 322 323 323 324 324 323 321 318 317 318 316 316
280 278 280 281 280 274 275 280 293 290 291 292 294 297 297 298 301 308 311 312 314 315 317 317 317 317 318 317 315 315 315 315 316 316 317 317 317 317 317 318 320 322 322 323 321 317 318 319 319
281 280 281 275 272 275 276 279 292 290 292 291 293 297 299 301 303 310 311 313 314 316 317 317 318 318 318 315 315 315 315 314 313 313 313 315 313 316 316 316 317 319 321 322 322 318 320 320 319
Wind_Speed
4 5 2 5 5 5 3 6 3 5 2 2 3 9 7 2 2 3 1 7 14 14 12 13 16 16 15 13 12 11 11 10 11 11 8 9 8 9 9 8 9 11 11 12 11 12 11 13 13
2 2 5 3 6 3 5 5 3 3 4 6 8 5 4 3 2 6 6 11 16 15 12 11 17 15 15 13 12 11 10 9 9 9 8 8 7 9 8 8 9 12 11 11 11 11 12 13 13
3 3 5 5 3 5 5 4 3 5 5 4 4 4 5 5 3 10 6 15 14 13 12 12 16 16 15 15 14 12 11 10 9 9 7 8 7 8 8 7 10 10 11 11 10 11 12 11 14
4 5 5 4 4 6 5 4 2 5 4 4 4 5 3 5 7 8 17 16 14 12 11 15 17 16 16 16 15 14 13 11 10 8 8 8 7 10 8 7 9 10 10 10 10 10 10 10 12
4 3 4 1 5 6 6 6 6 2 1 3 3 4 2 4 4 16 17 15 15 12 11 14 19 17 16 15 15 14 14 12 11 10 7 6 8 9 10 9 9 9 10 9 9 9 9 9 9
5 3 3 2 5 6 9 4 2 1 1 5 4 4 4 2 8 12 15 13 14 15 13 13 17 18 17 15 14 13 13 13 11 8 8 5 8 9 10 10 11 9 9 9 8 6 7 8 7
5 4 4 4 5 5 5 0 3 3 6 3 3 5 2 1 5 7 11 11 12 12 12 11 12 13 15 15 13 13 12 10 11 10 7 7 3 8 10 10 10 9 9 9 8 6 5 6 6
5 4 2 4 3 4 6 3 3 2 3 6 5 5 4 6 7 7 8 10 10 10 9 10 8 8 9 7 13 11 11 10 10 9 7 6 6 8 10 10 9 9 9 8 8 5 3 4 5
4 4 2 4 4 7 7 7 7 4 2 3 5 7 6 9 7 7 7 5 6 6 8 9 9 7 6 5 7 10 10 10 10 8 8 6 4 5 7 8 9 10 10 9 8 7 4 2 4
5 4 9 6 1 3 4 2 6 7 8 3 2 2 5 9 7 8 8 10 8 8 7 8 8 8 6 5 5 5 5 4 5 4 4 3 4 4 5 6 10 11 10 10 9 7 4 2 3
5 6 5 6 5 4 5 6 3 3 7 6 2 4 2 6 8 9 9 14 14 9 7 9 10 9 9 5 4 3 2 3 3 5 5 4 3 2 2 2 2 3 7 3 4 4 1 1 3
3 8 7 6 7 4 5 4 5 5 11 8 5 4 5 7 8 10 10 13 12 13 15 12 11 10 8 5 5 6 4 4 3 5 6 4 2 2 3 3 3 4 3 4 3 2 2 2 3
4 5 7 9 9 6 5 7 6 11 10 8 10 8 10 11 10 7 10 12 15 15 14 14 10 10 9 8 4 5 5 5 4 4 4 3 4 4 3 4 3 3 3 3 3 3 2 2 3
4 4 7 7 8 5 6 8 5 15 5 9 8 12 10 10 12 9 7 9 8 14 14 12 14 10 10 7 7 5 4 4 4 4 5 6 4 4 4 4 4 4 4 3 3 3 3 2 0
4 6 8 8 5 6 2 5 10 18 4 9 11 15 11 11 10 14 14 13 14 11 13 14 13 12 10 8 7 5 4 4 4 4 5 5 5 5 5 4 4 4 4 5 4 3 3 4 2
6 1 3 6 3 8 10 7 16 9 4 10 11 9 9 10 12 12 13 10 10 14 15 15 12 13 12 9 6 5 5 4 4 4 4 6 5 6 5 4 4 4 4 4 3 4 4 4 4
3 5 5 7 4 3 3 6 10 5 6 9 10 9 8 9 10 11 11 12 10 14 16 16 13 14 13 9 7 6 8 4 4 4 4 5 6 6 5 4 4 4 4 3 3 2 3 3 3
7 5 5 4 7 8 7 10 8 10 6 11 10 10 9 9 12 9 10 11 8 12 16 18 14 13 11 7 6 4 5 4 4 4 3 5 4 6 5 4 5 4 4 3 3 4 3 3 4
4 4 9 8 9 7 7 9 10 10 10 10 10 11 10 11 12 8 9 9 7 8 14 17 15 12 11 8 6 4 5 3 3 4 6 6 5 6 5 4 5 4 4 4 5 4 7 3 2
8 9 12 9 9 5 12 19 8 7 10 15 17 12 11 11 10 11 10 7 9 15 16 17 15 16 13 10 4 4 4 3 3 3 3 4 4 4 5 6 5 5 4 5 5 5 3 2 2
11 7 10 12 5 3 5 16 9 6 8 9 12 11 10 14 14 12 9 8 7 13 17 18 18 18 13 11 7 5 5 4 3 2 2 3 4 4 6 6 5 5 4 4 4 4 5 4 2
10 10 12 6 4 9 5 12 8 10 12 9 12 10 9 10 7 8 8 7 10 14 15 19 17 17 11 13 8 12 5 5 3 4 3 3 3 5 6 6 6 5 4 5 4 4 3 4 5
8 6 6 3 4 4 4 2 2 5 17 17 13 5 2 4 4 5 5 6 4 8 13 13 12 11 10 8 8 7 6 4 4 3 4 3 4 5 6 6 6 6 5 5 6 6 5 2 4
6 3 2 1 1 8 7 6 16 4 4 11 6 2 3 3 3 4 4 7 8 7 7 12 14 9 10 9 8 9 9 7 5 4 4 3 2 3 4 4 5 4 4 5 4 5 6 5 3
9 6 4 4 2 10 6 6 15 12 11 13 19 8 4 4 4 3 4 7 9 11 8 10 14 10 9 9 8 8 8 7 7 6 5 5 3 2 5 4 3 3 4 5 5 4 5 6 4
3 2 1 5 4 5 6 7 6 2 9 17 18 18 10 12 3 6 6 6 8 11 13 11 10 9 8 9 8 6 7 4 4 4 5 4 3 4 4 4 4 5 4 4 4 4 4 5 5
5 3 2 4 8 3 6 7 4 14 19 21 20 19 16 10 7 7 6 7 9 10 9 12 12 9 8 8 7 7 6 7 7 6 5 4 4 4 5 5 5 4 5 5 5 3 4 5 5
4 4 2 3 5 7 7 5 1 13 14 14 18 19 18 18 12 7 5 5 6 8 10 11 11 10 9 7 6 6 6 5 6 6 6 6 4 4 4 3 4 4 5 6 5 4 4 5 3
5 4 2 1 3 5 4 3 5 10 13 14 14 15 16 16 15 9 3 3 4 5 6 10 10 10 8 7 5 6 6 6 6 7 6 5 5 4 4 4 2 3 4 5 5 5 5 6 5
5 4 5 1 5 4 4 4 5 8 7 11 16 15 15 13 14 13 5 4 5 4 4 7 10 7 8 7 7 8 8 8 7 6 5 5 4 4 2 0 1 1 3 4 5 6 4 6 6
Wind_Direction
316 328 63 43 49 60 277 273 269 320 32 334 331 90 125 95 149 200 124 144 133 144 154 156 155 153 153 146 142 131 127 126 131 125 119 117 126 122 112 115 113 103 96 91 86 82 78 71 57
6 0 42 80 81 35 280 269 314 268 299 126 101 119 61 78 95 108 120 153 145 146 151 157 158 155 152 149 143 143 140 134 119 113 128 131 142 126 123 129 121 114 105 93 88 83 77 70 58
354 87 81 94 126 184 217 239 272 311 325 3 95 48 129 141 127 158 157 147 143 146 149 162 161 158 156 155 153 146 141 139 134 132 129 143 147 126 130 139 132 121 110 104 96 85 80 73 66
35 12 33 77 250 261 238 260 265 320 338 348 129 68 42 229 166 176 144 145 144 152 156 166 165 165 163 160 158 160 157 153 145 146 151 156 157 144 137 145 136 126 117 112 103 96 86 75 72
39 57 58 4 251 265 253 237 254 238 250 297 339 152 31 334 170 140 147 151 152 159 164 167 168 171 170 166 165 161 160 157 153 155 164 166 162 148 148 145 139 133 129 118 109 101 97 80 68
36 88 73 230 252 277 297 243 267 263 235 306 68 94 199 158 135 155 153 159 157 160 166 171 175 174 173 172 169 164 164 161 160 156 167 183 169 156 156 149 143 146 138 127 117 116 97 85 74
112 84 209 228 252 295 282 326 109 270 315 315 100 131 284 190 202 145 152 158 162 164 162 170 175 176 182 170 175 170 167 166 157 163 182 184 173 161 152 149 151 152 155 146 134 121 102 90 76
105 95 279 264 246 265 313 349 164 213 251 302 141 177 195 209 175 120 121 148 155 160 162 161 168 167 170 171 175 174 167 166 167 165 173 147 162 147 147 152 155 161 158 160 141 134 121 98 89
113 79 238 258 339 307 333 359 324 287 88 309 338 159 221 156 150 123 106 115 129 159 160 160 164 159 157 158 173 174 174 171 174 171 164 161 152 152 157 158 167 163 164 172 162 162 169 134 93
105 139 219 214 200 272 283 302 313 347 334 324 27 8 131 140 161 162 147 158 157 169 172 172 164 162 163 176 172 168 180 177 169 178 177 167 171 170 174 175 171 170 170 173 174 173 195 123 84
187 202 217 262 242 273 271 288 217 340 294 252 178 208 231 174 183 182 159 169 174 178 175 181 177 176 167 170 172 159 180 168 188 176 188 170 180 201 210 168 184 157 166 163 168 167 206 269 89
209 236 232 256 278 296 260 251 270 184 240 257 198 283 281 243 208 187 174 170 168 176 189 184 183 176 176 159 175 174 178 184 182 198 184 168 194 180 217 163 162 154 145 162 170 165 215 321 38
235 253 258 264 270 245 269 252 253 254 254 255 270 201 225 229 216 213 200 188 177 182 185 181 175 174 170 159 166 181 187 193 192 192 182 172 178 160 154 136 162 152 152 176 201 183 182 46 329
249 264 260 268 265 256 250 271 149 264 255 264 275 272 217 214 218 220 198 213 197 194 186 174 175 173 168 162 165 186 181 188 178 187 187 179 162 154 152 157 150 160 165 176 186 192 132 126 61
307 323 314 273 271 263 145 296 242 258 189 268 277 269 250 217 222 217 217 202 198 200 188 172 174 161 161 174 172 164 176 169 182 187 172 168 165 164 149 143 151 163 172 167 171 132 104 109 78
349 340 309 303 309 266 142 250 260 260 230 254 281 285 271 246 221 230 227 217 189 190 182 178 173 171 167 169 162 161 158 163 167 168 179 172 169 158 142 147 166 164 164 154 154 134 106 102 78
328 247 243 308 218 261 175 289 279 288 210 254 264 272 274 277 274 237 225 232 182 186 182 176 164 172 169 157 148 148 135 137 139 123 138 155 156 144 141 157 151 161 152 141 132 107 127 126 99
228 239 237 244 296 326 287 269 285 293 272 261 268 270 255 253 251 251 250 235 188 183 182 176 168 162 156 140 127 116 129 143 140 146 160 153 142 140 144 135 138 144 127 116 108 119 95 102 119
235 277 274 273 271 276 257 261 265 278 305 282 271 265 254 258 257 237 228 254 174 183 176 176 164 153 144 145 149 140 149 137 118 143 154 149 153 157 155 137 135 141 134 142 127 100 115 93 141
252 261 270 275 248 268 292 279 261 243 247 252 270 261 251 248 257 254 249 207 185 172 187 170 166 161 161 159 152 127 135 132 126 139 155 163 159 145 160 160 158 157 131 135 148 142 116 95 228
247 236 257 263 272 261 282 287 296 267 254 265 257 257 258 259 254 247 240 221 181 179 181 172 171 167 161 149 122 92 89 70 92 141 175 201 177 170 159 173 148 151 135 156 165 137 141 139 203
258 224 243 261 288 273 148 292 273 276 292 287 278 282 282 255 240 230 238 218 182 188 190 176 167 164 155 153 140 155 147 141 174 163 168 173 182 185 160 147 147 152 154 170 155 151 151 134 167
244 235 236 252 241 301 160 185 294 15 298 290 286 303 340 313 302 279 206 202 191 154 174 159 143 139 137 135 140 138 125 121 131 122 144 170 199 188 168 169 172 165 169 186 170 158 156 162 165
307 323 315 351 135 272 190 173 285 222 284 309 349 265 195 254 12 33 44 84 89 88 117 134 122 116 121 121 125 132 139 143 133 143 151 149 148 136 125 136 166 174 181 177 176 157 158 159 164
28 62 334 287 252 246 193 184 252 353 15 342 320 277 284 350 69 69 89 110 117 108 96 108 120 119 123 121 128 137 136 150 161 155 142 140 134 118 152 134 179 198 208 169 154 156 151 174 172
330 260 147 259 230 276 312 235 247 22 8 15 5 355 353 342 21 78 50 73 93 108 110 101 108 106 103 107 108 109 123 128 130 132 131 140 143 146 156 164 204 219 170 142 140 157 167 162 176
346 36 190 240 270 246 236 267 189 19 22 11 360 360 349 340 359 4 52 71 87 92 93 109 106 98 96 103 105 102 112 120 127 129 136 145 147 162 180 181 197 167 149 149 144 157 160 173 179
99 272 3 248 252 238 260 224 240 14 7 358 358 352 349 350 358 351 31 51 82 100 112 105 108 112 113 103 108 114 127 124 121 120 117 113 107 116 126 156 182 159 149 150 158 165 170 171 176
339 325 313 314 268 242 276 251 84 26 358 350 340 334 340 349 345 321 337 67 61 91 111 120 112 122 120 114 102 104 99 100 106 103 95 90 90 106 109 84 68 196 176 165 169 179 170 185 184
248 4 35 284 295 274 280 262 105 38 19 350 334 331 327 344 345 312 249 155 114 97 115 140 118 125 113 112 117 108 103 92 88 92 91 88 86 74 84 177 298 306 202 189 170 172 193 208 187